| time (UTC) | temp C | wind direction | speed KPH | gust KPH | rain 1hr cm | rain 24hr cm | rain mn cm | humidity % | barometer mb |
| 20260510214540 | 26 | 0 | 0.0 | 1.6 | 0.00 | 0.00 | 0.00 | 48 | 1015.4 |
| 20260510213042 | 26 | 0 | 0.0 | 3.2 | 0.00 | 0.00 | 0.00 | 45 | 1015.5 |
| 20260510211541 | 26 | 293 | 1.6 | 3.2 | 0.00 | 0.00 | 0.00 | 45 | 1015.7 |
| 20260510210045 | 26 | 0 | 0.0 | 1.6 | 0.00 | 0.00 | 0.00 | 48 | 1015.7 |
| 20260510204543 | 26 | 0 | 0.0 | 3.2 | 0.00 | 0.00 | 0.00 | 45 | 1015.8 |
| 20260510203040 | 26 | 295 | 0.0 | 3.2 | 0.00 | 0.00 | 0.00 | 47 | 1015.7 |
| 20260510201547 | 26 | 333 | 0.0 | 1.6 | 0.00 | 0.00 | 0.00 | 48 | 1015.9 |
| 20260510200047 | 26 | 337 | 0.0 | 3.2 | 0.00 | 0.00 | 0.00 | 46 | 1015.8 |
| 20260510194545 | 26 | 342 | 0.0 | 3.2 | 0.00 | 0.00 | 0.00 | 46 | 1015.9 |
| 20260510193042 | 27 | 3 | 0.0 | 3.2 | 0.00 | 0.00 | 0.00 | 46 | 1015.9 |
| 20260510191552 | 27 | 335 | 0.0 | 3.2 | 0.00 | 0.00 | 0.00 | 48 | 1015.9 |
| 20260510190046 | 27 | 0 | 0.0 | 3.2 | 0.00 | 0.00 | 0.00 | 44 | 1015.9 |
| 20260510184547 | 27 | 0 | 0.0 | 0.0 | 0.00 | 0.00 | 0.00 | 45 | 1016.0 |
| 20260510183047 | 26 | 0 | 0.0 | 4.8 | 0.00 | 0.00 | 0.00 | 46 | 1016.2 |
| 20260510181549 | 26 | 273 | 1.6 | 4.8 | 0.00 | 0.00 | 0.00 | 48 | 1016.3 |
| 20260510180049 | 26 | 320 | 0.0 | 3.2 | 0.00 | 0.00 | 0.00 | 52 | 1016.4 |
| 20260510174547 | 26 | 291 | 0.0 | 3.2 | 0.00 | 0.00 | 0.00 | 51 | 1016.5 |
| 20260510173048 | 25 | 285 | 1.6 | 3.2 | 0.00 | 0.00 | 0.00 | 52 | 1016.7 |
| 20260510171554 | 25 | 288 | 0.0 | 3.2 | 0.00 | 0.00 | 0.00 | 53 | 1016.8 |
| 20260510170047 | 25 | 199 | 0.0 | 4.8 | 0.00 | 0.00 | 0.00 | 56 | 1016.9 |
| 20260510164550 | 25 | 302 | 0.0 | 3.2 | 0.00 | 0.00 | 0.00 | 58 | 1016.7 |
| 20260510163049 | 25 | 261 | 0.0 | 3.2 | 0.00 | 0.00 | 0.00 | 62 | 1016.7 |
| 20260510161546 | 24 | 257 | 0.0 | 3.2 | 0.00 | 0.00 | 0.00 | 61 | 1016.7 |
| 20260510160046 | 23 | 360 | 1.6 | 3.2 | 0.00 | 0.00 | 0.00 | 62 | 1016.7 |
| 20260510154545 | 23 | 0 | 0.0 | 1.6 | 0.00 | 0.00 | 0.00 | 68 | 1016.4 |
| 20260510153047 | 22 | 0 | 0.0 | 1.6 | 0.00 | 0.00 | 0.00 | 69 | 1016.3 |
| 20260510151544 | 22 | 243 | 0.0 | 3.2 | 0.00 | 0.00 | 0.00 | 72 | 1016.3 |
| 20260510150054 | 22 | 250 | 0.0 | 3.2 | 0.00 | 0.00 | 0.00 | 77 | 1016.3 |
| 20260510144605 | 21 | 0 | 0.0 | 3.2 | 0.00 | 0.00 | 0.00 | 78 | 1016.4 |
| 20260510143104 | 21 | 0 | 0.0 | 1.6 | 0.00 | 0.00 | 0.00 | 80 | 1016.4 |
| 20260510141550 | 21 | 0 | 0.0 | 1.6 | 0.00 | 0.00 | 0.00 | 83 | 1016.4 |
| 20260510140050 | 20 | 0 | 0.0 | 1.6 | 0.00 | 0.00 | 0.00 | 86 | 1016.4 |
| 20260510134603 | 19 | 0 | 0.0 | 0.0 | 0.00 | 0.00 | 0.00 | 87 | 1016.3 |
| 20260510133047 | 18 | 0 | 0.0 | 1.6 | 0.00 | 0.00 | 0.00 | 89 | 1016.3 |
| 20260510131548 | 17 | 246 | 0.0 | 1.6 | 0.00 | 0.00 | 0.00 | 93 | 1016.4 |
| 20260510130045 | 16 | 0 | 0.0 | 1.6 | 0.00 | 0.00 | 0.00 | 97 | 1016.2 |
| 20260510124546 | 15 | 0 | 0.0 | 0.0 | 0.00 | 0.00 | 0.00 | 97 | 1016.0 |
| 20260510123042 | 15 | 0 | 0.0 | 0.0 | 0.00 | 0.00 | 0.00 | 96 | 1016.0 |
| 20260510121541 | 14 | 0 | 0.0 | 0.0 | 0.00 | 0.00 | 0.00 | 96 | 1015.9 |
| 20260510120041 | -17 | 0.0 | 0.0 | 0.00 | 0.00 | 0.00 | 1015.6 | ||
| 20260510114546 | -17 | 0.0 | 0.0 | 0.00 | 0.00 | 0.00 | 1015.3 | ||
| 20260510113043 | -17 | 0.0 | 0.0 | 0.00 | 0.00 | 0.00 | 1014.9 | ||
| 20260510111553 | -17 | 0.0 | 0.0 | 0.00 | 0.00 | 0.00 | 1014.7 | ||
| 20260510110041 | -17 | 0.0 | 0.0 | 0.00 | 0.00 | 0.00 | 1014.5 | ||
| 20260510104605 | -17 | 0.0 | 0.0 | 0.00 | 0.00 | 0.00 | 1014.3 | ||
| 20260510103045 | 12 | 0 | 0.0 | 0.0 | 0.00 | 0.00 | 0.00 | 94 | 1014.2 |
| 20260510101544 | 12 | 0 | 0.0 | 0.0 | 0.00 | 0.00 | 0.00 | 93 | 1014.0 |
| 20260510100042 | 12 | 0 | 0.0 | 0.0 | 0.00 | 0.00 | 0.00 | 93 | 1014.0 |
| 20260510094548 | 12 | 0 | 0.0 | 0.0 | 0.00 | 0.00 | 0.00 | 93 | 1013.9 |
| 20260510093041 | 12 | 0 | 0.0 | 0.0 | 0.00 | 0.00 | 0.00 | 92 | 1013.9 |
| 20260510091545 | 12 | 0 | 0.0 | 0.0 | 0.00 | 0.00 | 0.00 | 92 | 1013.8 |
| 20260510090042 | 12 | 0 | 0.0 | 0.0 | 0.00 | 0.00 | 0.00 | 91 | 1013.8 |
| 20260510084540 | 12 | 0 | 0.0 | 0.0 | 0.00 | 0.00 | 0.00 | 92 | 1013.7 |
| 20260510083050 | 12 | 0 | 0.0 | 0.0 | 0.00 | 0.00 | 0.00 | 91 | 1013.8 |
| 20260510081600 | 12 | 0 | 0.0 | 0.0 | 0.00 | 0.00 | 0.00 | 91 | 1013.7 |
| 20260510080046 | 11 | 0 | 0.0 | 1.6 | 0.00 | 0.00 | 0.00 | 91 | 1013.7 |
| 20260510074543 | 11 | 0 | 0.0 | 1.6 | 0.00 | 0.00 | 0.00 | 91 | 1013.3 |
| 20260510073041 | 11 | 0 | 0.0 | 1.6 | 0.00 | 0.00 | 0.00 | 92 | 1013.1 |
| 20260510071550 | 11 | 251 | 0.0 | 3.2 | 0.00 | 0.00 | 0.00 | 91 | 1013.1 |
| 20260510070055 | 11 | 0 | 0.0 | 0.0 | 0.00 | 0.00 | 0.00 | 91 | 1013.0 |
| 20260510064540 | 11 | 0 | 0.0 | 0.0 | 0.00 | 0.00 | 0.00 | 91 | 1013.0 |
| 20260510063046 | 11 | 0 | 0.0 | 0.0 | 0.00 | 0.00 | 0.00 | 90 | 1013.0 |
| 20260510061549 | 12 | 0 | 0.0 | 0.0 | 0.00 | 0.00 | 0.00 | 90 | 1012.9 |
| 20260510060054 | 12 | 0 | 0.0 | 0.0 | 0.00 | 0.00 | 0.00 | 90 | 1013.0 |
| 20260510054549 | 12 | 0 | 0.0 | 0.0 | 0.00 | 0.00 | 0.00 | 91 | 1013.0 |
| 20260510053050 | 12 | 0 | 0.0 | 0.0 | 0.00 | 0.00 | 0.00 | 90 | 1013.0 |
| 20260510051618 | 12 | 0 | 0.0 | 0.0 | 0.00 | 0.00 | 0.00 | 90 | 1013.0 |
| 20260510050051 | 12 | 0 | 0.0 | 0.0 | 0.00 | 0.00 | 0.00 | 90 | 1012.9 |
| 20260510044545 | 12 | 0 | 0.0 | 0.0 | 0.00 | 0.00 | 0.00 | 89 | 1012.9 |
| 20260510043132 | 13 | 0 | 0.0 | 0.0 | 0.00 | 0.00 | 0.00 | 89 | 1013.0 |
| 20260510041552 | 13 | 0 | 0.0 | 0.0 | 0.00 | 0.00 | 0.00 | 88 | 1013.0 |
| 20260510040050 | 13 | 0 | 0.0 | 0.0 | 0.00 | 0.00 | 0.00 | 88 | 1013.1 |
| 20260510034553 | 13 | 0 | 0.0 | 0.0 | 0.00 | 0.00 | 0.00 | 87 | 1012.9 |
| 20260510033050 | 13 | 0 | 0.0 | 0.0 | 0.00 | 0.00 | 0.00 | 87 | 1012.9 |
| 20260510031613 | 14 | 0 | 0.0 | 0.0 | 0.00 | 0.00 | 0.00 | 86 | 1012.9 |
| 20260510030047 | 15 | 0 | 0.0 | 0.0 | 0.00 | 0.00 | 0.00 | 85 | 1012.7 |
| 20260510024545 | 15 | 0 | 0.0 | 0.0 | 0.00 | 0.00 | 0.00 | 85 | 1012.5 |
| 20260510023054 | 15 | 0 | 0.0 | 0.0 | 0.00 | 0.00 | 0.00 | 82 | 1012.2 |
| 20260510021549 | 16 | 0 | 0.0 | 0.0 | 0.00 | 0.00 | 0.00 | 81 | 1012.2 |
| 20260510020049 | 16 | 0 | 0.0 | 0.0 | 0.00 | 0.00 | 0.00 | 80 | 1012.2 |
| 20260510014547 | 17 | 0 | 0.0 | 0.0 | 0.00 | 0.00 | 0.00 | 79 | 1012.1 |
| 20260510013042 | 17 | 0 | 0.0 | 0.0 | 0.00 | 0.00 | 0.00 | 77 | 1011.6 |
| 20260510011603 | 18 | 0 | 0.0 | 0.0 | 0.00 | 0.00 | 0.00 | 76 | 1011.5 |
| 20260510010058 | 18 | 0 | 0.0 | 0.0 | 0.00 | 0.00 | 0.00 | 74 | 1011.3 |
| 20260510004545 | 20 | 0 | 0.0 | 0.0 | 0.00 | 0.00 | 0.00 | 72 | 1011.2 |
| 20260510003042 | 20 | 0 | 0.0 | 0.0 | 0.00 | 0.00 | 0.00 | 71 | 1011.2 |
| 20260510001547 | 21 | 0 | 0.0 | 0.0 | 0.00 | 0.00 | 0.00 | 67 | 1011.2 |
| 20260510000047 | 22 | 0 | 0.0 | 0.0 | 0.00 | 0.00 | 0.00 | 63 | 1011.1 |
| 20260509234546 | 22 | 0 | 0.0 | 0.0 | 0.00 | 0.00 | 0.00 | 61 | 1011.0 |
| 20260509233044 | 23 | 0 | 0.0 | 0.0 | 0.00 | 0.00 | 0.00 | 54 | 1010.9 |
| 20260509231557 | 23 | 0 | 0.0 | 0.0 | 0.00 | 0.00 | 0.00 | 53 | 1010.8 |
| 20260509230054 | 23 | 0 | 0.0 | 0.0 | 0.00 | 0.00 | 0.00 | 52 | 1010.8 |
| 20260509224548 | 23 | 0 | 0.0 | 1.6 | 0.00 | 0.00 | 0.00 | 49 | 1010.6 |
| 20260509223047 | 23 | 0 | 0.0 | 0.0 | 0.00 | 0.00 | 0.00 | 52 | 1010.6 |
| 20260509221550 | 24 | 0 | 0.0 | 0.0 | 0.00 | 0.00 | 0.00 | 51 | 1010.4 |
| 20260509220049 | 24 | 0 | 0.0 | 1.6 | 0.00 | 0.00 | 0.00 | 53 | 1010.5 |